Location: Dumpton Point
(51.3500°N, 1.4433°E)
Time: 06:12:22
(UTC+00:00)

Altair - Pass Details

Date: 05 October 2022
Orbit: 1501 x 1682 km, 47.2° (Epoch: 26 November)

Event Time Altitude Azimuth Distance (km) Brightness Sun altitude
Rises 05:43:50 0° 245° (WSW) 4,782 9.5 -3.5°
Reaches altitude 10° 05:46:54 10° 242° (WSW) 3,822 9.1 -3.0°
Maximum altitude 05:56:31 64° 164° (SSE) 1,796 8.1 -1.6°
Drops below altitude 10° 06:06:27 10° 87° (E) 3,939 11.6 0.0°
Sets 06:09:40 0° 84° (E) 4,935 12.2 0.5°
